• MPC Preparation (Info)

  • MPEC 2014-A47 : 2014 AE17

    The following Minor Planet Electronic Circular may be linked-to from your own Web pages, but must not otherwise be redistributed electronically.

    A form allowing access to any MPEC is at the bottom of this page.


    Read MPEC 2014-A46 Read MPEC 2014-A48


    M.P.E.C. 2014-A47                                Issued 2014 Jan. 6, 23:50 UT
    
         The Minor Planet Electronic Circulars contain information on unusual
             minor planets and routine data on comets.  They are published
       on behalf of Commission 20 of the International Astronomical Union by the
              Minor Planet Center, Smithsonian Astrophysical Observatory,
                              Cambridge, MA 02138, U.S.A.
    
                 Prepared using the Tamkin Foundation Computer Network
    
                                  MPC@CFA.HARVARD.EDU
                URL https://www.minorplanetcenter.net/    ISSN 1523-6714
    
                                       2014 AE17
    
    Observations:
         K14A17E* C2014 01 04.42550 07 49 22.905+40 12 09.67         20.8 wLEA047F51
         K14A17E  C2014 01 04.45180 07 49 21.050+40 11 33.46         21.0 wLEA047F51
         K14A17E  C2014 01 04.46495 07 49 20.107+40 11 15.26         21.0 wLEA047F51
         K14A17E KC2014 01 05.48156 07 48 14.97 +39 47 27.4          20.8 RoEA047291
         K14A17E KC2014 01 05.48536 07 48 14.71 +39 47 21.2          20.4 RoEA047291
         K14A17E KC2014 01 05.48917 07 48 14.45 +39 47 16.5          20.9 RoEA047291
         K14A17E  C2014 01 06.32936 07 47 22.40 +39 27 31.5          20.6 RoEA047926
         K14A17E KC2014 01 06.33344 07 47 22.31 +39 27 23.5          19.9 RqEA047G58
         K14A17E KC2014 01 06.34124 07 47 21.82 +39 27 12.4          20.6 RqEA047G58
         K14A17E  C2014 01 06.34716 07 47 21.17 +39 27 06.4          20.7 RoEA047926
         K14A17E KC2014 01 06.35078 07 47 21.15 +39 27 00.4          20.8 RqEA047G58
         K14A17E  C2014 01 06.36687 07 47 19.77 +39 26 38.3          20.5 RoEA047926
    
    Observer details:
    291 LPL/Spacewatch II.  Observers R. A. Mastaler, R. S. McMillan.  1.8-m f/2.7
        reflector + CCD.
    926 Tenagra II Observatory.  Observers M. Schwartz, P. R. Holvorcem.  0.41-m
        f/3.75 astrograph + CCD, 0.81-m f/7 Ritchey-Chretien + CCD.
    F51 Pan-STARRS 1, Haleakala.  Observers N. Primak, A. Schultz. T. Goggia,
        M. Willman.  Measurer PS1 Science Consortium.  1.8-m Ritchey-Chretien
        + CCD.
    G58 Chabot Space and Science Center, Oakland.  Observer G. McKeegan.  0.9-m
        f/4.5 Cassegrain + CCD.
    
    Orbital elements:
    2014 AE17
    Epoch 2013 Nov. 4.0 TT = JDT 2456600.5                  MPC
    M 357.22388              (2000.0)            P               Q
    n   0.18488524     Peri.  118.18215     +0.27298480     -0.94754618
    a   3.0516488      Node   314.93393     +0.77962666     +0.31914021
    e   0.5385304      Incl.   13.58145     +0.56361474     +0.01748621
    P   5.33           H   20.6           G   0.15           U   8
    Residuals in seconds of arc
    140104 F51  0.3-  0.1+    140105 291  0.2-  0.4-    140106 G58  0.2+  0.4-
    140104 F51  0.0   0.1+    140105 291  0.2-  0.5+    140106 926  0.1+  0.1+
    140104 F51  0.0   0.1+    140106 926  0.3-  0.1-    140106 G58  0.1+  1.1+
    140105 291  0.2-  0.3+    140106 G58  0.5-  0.3-    140106 926  0.0   0.1+
    
    Ephemeris:
    2014 AE17                a,e,i = 3.05, 0.54, 14                  q = 1.4082
    Date    TT    R. A. (2000) Decl.     Delta      r     Elong.  Phase     V
    2013 12 07    08 03 09.5 +48 32 29   0.5439  1.4211   134.7    29.6    21.3
    ...
    2013 12 22    08 01 24.3 +44 50 09   0.5219  1.4509   147.4    21.4    21.0
    ...
    2013 12 30    07 54 53.3 +42 12 50   0.5225  1.4733   154.9    16.5    20.9
    ...
    2014 01 05    07 48 46.4 +39 58 45   0.5301  1.4927   160.1    13.0    20.9
    2014 01 06    07 47 43.2 +39 35 17   0.5321  1.4962   160.9    12.4    20.8
    2014 01 07    07 46 40.1 +39 11 34   0.5342  1.4997   161.6    11.9    20.8
    ...
    2014 01 13    07 40 33.0 +36 45 06   0.5510  1.5221   164.8     9.8    20.9
    ...
    2014 01 21    07 33 38.4 +33 25 55   0.5848  1.5548   164.2     9.9    21.0
    ...
    2014 02 05    07 27 04.3 +27 37 51   0.6835  1.6243   152.8    16.1    21.7
    
    A. U. Tomatic                (C) Copyright 2014 MPC           M.P.E.C. 2014-A47
    

    Read MPEC 2014-A46 Read MPEC 2014-A48


    MPEC number:

    Enter an MPEC number in one of the following forms:

    • 1997-B01 (the full form)
    • J97B01 (the packed version of the full form)
    • B01 (the abbreviated form)